Location: Los Gatos B&B
(42.6926°N, 77.0646°W)
Time: 15:08:39
(UTC-04:00)

SL-16 R/B - Visible Passes

Search period start: 01 September 2014 00:00
Search period end: 11 September 2014 00:00
Orbit: 840 x 850 km, 71.0° (Epoch: 31 August)

Date Brightness Start Highest point End Pass type
(mag) Time Alt. Az. Time Alt. Az. Time Alt. Az.
04 Sep 3.8 05:59:16 10° S 06:04:26 38° ESE 06:09:39 10° NE visible
05 Sep 3.8 05:45:21 10° S 05:50:29 37° ESE 05:55:40 10° NE visible
06 Sep 3.8 05:31:27 10° S 05:36:33 36° ESE 05:41:41 10° NE visible
07 Sep 3.8 05:17:33 10° SSE 05:22:36 35° ESE 05:27:41 10° NE visible
08 Sep 3.8 05:03:39 10° SSE 05:08:39 34° ESE 05:13:42 10° NE visible
09 Sep 3.8 04:49:44 10° SSE 04:54:42 33° ESE 04:59:42 10° NE visible
10 Sep 3.8 04:35:51 10° SSE 04:40:46 32° ESE 04:45:43 10° NE visible
